Time,TemperatureF,DewpointF,PressureIn,WindDirection,WindDirectionDegrees,WindSpeedMPH,WindSpeedGustMPH,Humidity,HourlyPrecipIn,Conditions,Clouds,dailyrainin,SoftwareType,DateUTC
2013-02-06 00:02:00,29.0,29.0,-100.00,West,270,4.0,7.0,99,-99.99,,,-99.99,,2013-02-06 05:02:00,
2013-02-06 00:12:00,29.0,29.0,-100.00,WSW,250,5.0,8.0,99,-99.99,,,-99.99,,2013-02-06 05:12:00,
2013-02-06 00:22:00,29.0,29.0,-100.00,WSW,250,5.0,8.0,99,-99.99,,,-99.99,,2013-02-06 05:22:00,
2013-02-06 00:32:00,29.0,29.0,-100.00,WNW,300,5.0,8.0,99,-99.99,,,-99.99,,2013-02-06 05:32:00,
2013-02-06 00:41:00,29.0,29.0,-100.00,West,260,5.0,9.0,99,-99.99,,,-99.99,,2013-02-06 05:41:00,
2013-02-06 00:53:00,29.0,29.0,-100.00,WNW,290,7.0,10.0,100,-99.99,,,-99.99,,2013-02-06 05:53:00,
2013-02-06 01:01:00,29.0,29.0,-100.00,WNW,285,6.0,10.0,99,-99.99,,,-99.99,,2013-02-06 06:01:00,
2013-02-06 01:11:00,29.0,29.0,-100.00,WNW,295,3.0,11.0,99,-99.99,,,-99.99,,2013-02-06 06:11:00,
2013-02-06 01:21:00,29.0,29.0,-100.00,WNW,300,5.0,9.0,99,-99.99,,,-99.99,,2013-02-06 06:21:00,
2013-02-06 01:32:00,29.0,29.0,-100.00,NNW,335,6.0,9.0,99,-99.99,,,-99.99,,2013-02-06 06:32:00,
2013-02-06 01:42:00,29.0,29.0,-100.00,NNW,340,8.0,13.0,99,-99.99,,,-99.99,,2013-02-06 06:42:00,
2013-02-06 01:51:00,29.0,29.0,-100.00,NNW,340,8.0,13.0,99,-99.99,,,-99.99,,2013-02-06 06:51:00,
2013-02-06 02:02:00,28.0,28.0,-100.00,NNW,345,6.0,16.0,96,-99.99,,,-99.99,,2013-02-06 07:02:00,
2013-02-06 02:11:00,28.0,27.0,-100.00,NNW,335,9.0,13.0,94,-99.99,,,-99.99,,2013-02-06 07:11:00,
2013-02-06 02:22:00,28.0,26.0,-100.00,NNW,330,7.0,12.0,91,-99.99,,,-99.99,,2013-02-06 07:22:00,
2013-02-06 02:32:00,28.0,26.0,-100.00,North,350,7.0,12.0,89,-99.99,,,-99.99,,2013-02-06 07:32:00,
2013-02-06 02:42:00,28.0,25.0,-100.00,NNW,340,6.0,12.0,87,-99.99,,,-99.99,,2013-02-06 07:42:00,
2013-02-06 02:51:00,28.0,25.0,-100.00,NNW,340,7.0,11.0,86,-99.99,,,-99.99,,2013-02-06 07:51:00,
2013-02-06 03:01:00,28.0,24.0,-100.00,NW,325,7.0,13.0,85,-99.99,,,-99.99,,2013-02-06 08:01:00,
2013-02-06 03:11:00,28.0,24.0,-100.00,NW,325,7.0,13.0,85,-99.99,,,-99.99,,2013-02-06 08:11:00,
2013-02-06 03:21:00,28.0,24.0,-100.00,NNW,335,6.0,12.0,84,-99.99,,,-99.99,,2013-02-06 08:21:00,
2013-02-06 03:32:00,28.0,24.0,-100.00,NNW,345,4.0,8.0,84,-99.99,,,-99.99,,2013-02-06 08:32:00,
2013-02-06 03:42:00,28.0,24.0,-100.00,NNW,345,4.0,8.0,84,-99.99,,,-99.99,,2013-02-06 08:42:00,
2013-02-06 03:53:00,28.0,24.0,-100.00,NNW,335,7.0,11.0,84,-99.99,,,-99.99,,2013-02-06 08:53:00,
2013-02-06 04:02:00,27.0,23.0,-100.00,NNW,340,7.0,13.0,84,-99.99,,,-99.99,,2013-02-06 09:02:00,
2013-02-06 04:11:00,27.0,23.0,-100.00,North,0,7.0,13.0,84,-99.99,,,-99.99,,2013-02-06 09:11:00,
2013-02-06 04:22:00,26.0,22.0,-100.00,NNW,340,6.0,15.0,83,-99.99,,,-99.99,,2013-02-06 09:22:00,
2013-02-06 04:32:00,26.0,21.0,-100.00,NW,320,9.0,12.0,82,-99.99,,,-99.99,,2013-02-06 09:32:00,
2013-02-06 04:42:00,25.0,20.0,-100.00,NW,325,9.0,14.0,79,-99.99,,,-99.99,,2013-02-06 09:42:00,
2013-02-06 04:52:00,24.0,18.0,-100.00,NW,320,7.0,17.0,75,-99.99,,,-99.99,,2013-02-06 09:52:00,
2013-02-06 05:01:00,24.0,18.0,-100.00,NW,320,7.0,17.0,75,-99.99,,,-99.99,,2013-02-06 10:01:00,
2013-02-06 05:11:00,23.0,16.0,-100.00,NW,310,6.0,12.0,73,-99.99,,,-99.99,,2013-02-06 10:11:00,
2013-02-06 05:21:00,23.0,16.0,-100.00,NW,325,5.0,11.0,73,-99.99,,,-99.99,,2013-02-06 10:21:00,
2013-02-06 05:32:00,23.0,16.0,-100.00,NW,305,6.0,8.0,73,-99.99,,,-99.99,,2013-02-06 10:32:00,
2013-02-06 05:42:00,23.0,16.0,-100.00,NNW,340,7.0,11.0,73,-99.99,,,-99.99,,2013-02-06 10:42:00,
2013-02-06 05:52:00,23.0,16.0,-100.00,NNW,340,5.0,10.0,72,-99.99,,,-99.99,,2013-02-06 10:52:00,
2013-02-06 06:01:00,22.0,15.0,-100.00,NNW,330,4.0,7.0,72,-99.99,,,-99.99,,2013-02-06 11:01:00,
2013-02-06 06:11:00,22.0,15.0,-100.00,NNW,330,6.0,8.0,72,-99.99,,,-99.99,,2013-02-06 11:11:00,
2013-02-06 06:22:00,22.0,14.0,-100.00,North,355,4.0,7.0,73,-99.99,,,-99.99,,2013-02-06 11:22:00,
2013-02-06 06:32:00,21.0,14.0,-100.00,NNW,335,3.0,6.0,74,-99.99,,,-99.99,,2013-02-06 11:32:00,
2013-02-06 06:42:00,21.0,14.0,-100.00,NNW,340,4.0,6.0,75,-99.99,,,-99.99,,2013-02-06 11:42:00,
2013-02-06 06:52:00,21.0,14.0,-100.00,NNW,340,4.0,6.0,75,-99.99,,,-99.99,,2013-02-06 11:52:00,
2013-02-06 07:02:00,20.0,13.0,-100.00,NNW,340,1.0,2.0,75,-99.99,,,-99.99,,2013-02-06 12:02:00,
2013-02-06 07:12:00,19.0,13.0,-100.00,NW,320,2.0,2.0,76,-99.99,,,-99.99,,2013-02-06 12:12:00,
2013-02-06 07:22:00,19.0,13.0,-100.00,WNW,295,2.0,4.0,77,-99.99,,,-99.99,,2013-02-06 12:22:00,
2013-02-06 07:32:00,18.0,13.0,-100.00,NW,310,0.0,4.0,78,-99.99,,,-99.99,,2013-02-06 12:32:00,
2013-02-06 07:42:00,18.0,13.0,-100.00,SW,225,1.0,2.0,79,-99.99,,,-99.99,,2013-02-06 12:42:00,
2013-02-06 07:52:00,19.0,13.0,-100.00,West,265,1.0,2.0,79,-99.99,,,-99.99,,2013-02-06 12:52:00,
2013-02-06 08:02:00,19.0,14.0,-100.00,West,265,1.0,2.0,80,-99.99,,,-99.99,,2013-02-06 13:02:00,
2013-02-06 08:12:00,19.0,14.0,-100.00,West,270,1.0,2.0,81,-99.99,,,-99.99,,2013-02-06 13:12:00,
2013-02-06 08:22:00,18.0,13.0,-100.00,West,270,1.0,1.0,81,-99.99,,,-99.99,,2013-02-06 13:22:00,
2013-02-06 08:32:00,18.0,14.0,-100.00,West,270,1.0,2.0,82,-99.99,,,-99.99,,2013-02-06 13:32:00,
2013-02-06 08:42:00,19.0,15.0,-100.00,WNW,295,2.0,4.0,82,-99.99,,,-99.99,,2013-02-06 13:42:00,
2013-02-06 08:52:00,20.0,16.0,-100.00,West,265,0.0,3.0,82,-99.99,,,-99.99,,2013-02-06 13:52:00,
2013-02-06 09:02:00,21.0,17.0,-100.00,WNW,300,1.0,2.0,82,-99.99,,,-99.99,,2013-02-06 14:02:00,
2013-02-06 09:11:00,22.0,18.0,-100.00,SW,220,1.0,2.0,82,-99.99,,,-99.99,,2013-02-06 14:11:00,
2013-02-06 09:22:00,24.0,19.0,-100.00,NW,325,1.0,2.0,81,-99.99,,,-99.99,,2013-02-06 14:22:00,
2013-02-06 09:32:00,25.0,20.0,-100.00,SW,215,0.0,2.0,79,-99.99,,,-99.99,,2013-02-06 14:32:00,
2013-02-06 09:42:00,26.0,20.0,-100.00,WNW,285,1.0,2.0,75,-99.99,,,-99.99,,2013-02-06 14:42:00,
2013-02-06 09:52:00,28.0,20.0,-100.00,SW,220,1.0,2.0,72,-99.99,,,-99.99,,2013-02-06 14:52:00,
2013-02-06 10:02:00,28.0,19.0,-100.00,South,190,1.0,2.0,69,-99.99,,,-99.99,,2013-02-06 15:02:00,
2013-02-06 10:11:00,28.0,18.0,-100.00,SE,135,2.0,6.0,65,-99.99,,,-99.99,,2013-02-06 15:11:00,
2013-02-06 10:21:00,28.0,17.0,-100.00,SE,145,2.0,5.0,63,-99.99,,,-99.99,,2013-02-06 15:21:00,
2013-02-06 10:32:00,29.0,18.0,-100.00,SSW,210,2.0,6.0,61,-99.99,,,-99.99,,2013-02-06 15:32:00,
2013-02-06 10:42:00,31.0,18.0,-100.00,North,5,1.0,3.0,59,-99.99,,,-99.99,,2013-02-06 15:42:00,
2013-02-06 10:52:00,30.0,17.0,-100.00,NNE,30,1.0,4.0,57,-99.99,,,-99.99,,2013-02-06 15:52:00,
2013-02-06 11:01:00,33.0,19.0,-100.00,North,10,1.0,2.0,55,-99.99,,,-99.99,,2013-02-06 16:01:00,
2013-02-06 11:11:00,34.0,19.0,-100.00,ESE,115,1.0,4.0,52,-99.99,,,-99.99,,2013-02-06 16:11:00,
2013-02-06 11:21:00,35.0,19.0,-100.00,ENE,70,1.0,4.0,50,-99.99,,,-99.99,,2013-02-06 16:21:00,
2013-02-06 11:32:00,34.0,17.0,-100.00,SE,135,1.0,4.0,48,-99.99,,,-99.99,,2013-02-06 16:32:00,
2013-02-06 11:42:00,35.0,17.0,-100.00,ESE,110,2.0,4.0,48,-99.99,,,-99.99,,2013-02-06 16:42:00,
2013-02-06 11:52:00,33.0,16.0,-100.00,SSE,160,1.0,6.0,48,-99.99,,,-99.99,,2013-02-06 16:52:00,
2013-02-06 12:02:00,32.0,15.0,-100.00,ESE,105,2.0,6.0,49,-99.99,,,-99.99,,2013-02-06 17:02:00,
2013-02-06 12:11:00,35.0,17.0,-100.00,East,90,1.0,5.0,48,-99.99,,,-99.99,,2013-02-06 17:11:00,
2013-02-06 12:22:00,36.0,18.0,-100.00,ENE,60,2.0,4.0,47,-99.99,,,-99.99,,2013-02-06 17:22:00,
2013-02-06 12:32:00,36.0,17.0,-100.00,SE,125,2.0,4.0,45,-99.99,,,-99.99,,2013-02-06 17:32:00,
2013-02-06 12:42:00,35.0,16.0,-100.00,SSE,160,2.0,6.0,45,-99.99,,,-99.99,,2013-02-06 17:42:00,
2013-02-06 12:52:00,35.0,16.0,-100.00,SSE,160,2.0,6.0,45,-99.99,,,-99.99,,2013-02-06 17:52:00,
2013-02-06 13:02:00,35.0,16.0,-100.00,SSE,160,2.0,6.0,45,-99.99,,,-99.99,,2013-02-06 18:02:00,
2013-02-06 13:11:00,35.0,16.0,-100.00,West,280,2.0,4.0,45,-99.99,,,-99.99,,2013-02-06 18:11:00,
2013-02-06 13:23:00,34.0,15.0,-100.00,SSW,205,4.0,7.0,45,-99.99,,,-99.99,,2013-02-06 18:23:00,
2013-02-06 13:32:00,33.0,15.0,-100.00,SSE,160,6.0,9.0,46,-99.99,,,-99.99,,2013-02-06 18:32:00,
2013-02-06 13:42:00,33.0,15.0,-100.00,SSW,195,4.0,10.0,47,-99.99,,,-99.99,,2013-02-06 18:42:00,
2013-02-06 13:52:00,33.0,15.0,-100.00,SSW,195,5.0,7.0,47,-99.99,,,-99.99,,2013-02-06 18:52:00,
2013-02-06 14:02:00,33.0,16.0,-100.00,SSW,210,4.0,8.0,48,-99.99,,,-99.99,,2013-02-06 19:02:00,
2013-02-06 14:11:00,33.0,15.0,-100.00,SW,215,6.0,8.0,47,-99.99,,,-99.99,,2013-02-06 19:11:00,
2013-02-06 14:21:00,33.0,15.0,-100.00,SW,215,6.0,8.0,47,-99.99,,,-99.99,,2013-02-06 19:21:00,
2013-02-06 14:32:00,33.0,16.0,-100.00,South,180,7.0,10.0,48,-99.99,,,-99.99,,2013-02-06 19:32:00,
2013-02-06 14:42:00,33.0,16.0,-100.00,SSW,195,6.0,9.0,49,-99.99,,,-99.99,,2013-02-06 19:42:00,
2013-02-06 14:52:00,33.0,16.0,-100.00,South,170,7.0,11.0,49,-99.99,,,-99.99,,2013-02-06 19:52:00,
2013-02-06 15:01:00,33.0,16.0,-100.00,South,170,7.0,9.0,49,-99.99,,,-99.99,,2013-02-06 20:01:00,
2013-02-06 15:11:00,33.0,16.0,-100.00,SSW,195,5.0,11.0,49,-99.99,,,-99.99,,2013-02-06 20:11:00,
2013-02-06 15:21:00,33.0,16.0,-100.00,South,185,6.0,9.0,48,-99.99,,,-99.99,,2013-02-06 20:21:00,
2013-02-06 15:32:00,32.0,15.0,-100.00,South,180,6.0,11.0,49,-99.99,,,-99.99,,2013-02-06 20:32:00,
2013-02-06 15:42:00,33.0,16.0,-100.00,SSE,165,6.0,9.0,49,-99.99,,,-99.99,,2013-02-06 20:42:00,
2013-02-06 15:52:00,33.0,16.0,-100.00,SSE,160,7.0,10.0,49,-99.99,,,-99.99,,2013-02-06 20:52:00,
2013-02-06 16:02:00,33.0,16.0,-100.00,South,180,7.0,11.0,49,-99.99,,,-99.99,,2013-02-06 21:02:00,
2013-02-06 16:11:00,32.0,15.0,-100.00,SSW,200,7.0,10.0,49,-99.99,,,-99.99,,2013-02-06 21:11:00,
2013-02-06 16:21:00,32.0,15.0,-100.00,South,170,7.0,10.0,49,-99.99,,,-99.99,,2013-02-06 21:21:00,
2013-02-06 16:32:00,31.0,15.0,-100.00,South,180,7.0,11.0,49,-99.99,,,-99.99,,2013-02-06 21:32:00,
2013-02-06 16:42:00,31.0,15.0,-100.00,South,175,9.0,12.0,50,-99.99,,,-99.99,,2013-02-06 21:42:00,
2013-02-06 16:51:00,31.0,15.0,-100.00,South,180,9.0,11.0,50,-99.99,,,-99.99,,2013-02-06 21:51:00,
2013-02-06 17:01:00,30.0,15.0,-100.00,SSW,200,9.0,12.0,51,-99.99,,,-99.99,,2013-02-06 22:01:00,
2013-02-06 17:11:00,30.0,15.0,-100.00,SSW,205,7.0,12.0,51,-99.99,,,-99.99,,2013-02-06 22:11:00,
2013-02-06 17:21:00,30.0,15.0,-100.00,SSW,200,7.0,11.0,51,-99.99,,,-99.99,,2013-02-06 22:21:00,
2013-02-06 17:32:00,30.0,15.0,-100.00,South,185,7.0,11.0,52,-99.99,,,-99.99,,2013-02-06 22:32:00,
2013-02-06 17:42:00,30.0,14.0,-100.00,SSW,205,6.0,12.0,52,-99.99,,,-99.99,,2013-02-06 22:42:00,
2013-02-06 17:52:00,30.0,15.0,-100.00,SSW,210,5.0,9.0,52,-99.99,,,-99.99,,2013-02-06 22:52:00,
2013-02-06 18:01:00,29.0,14.0,-100.00,SSW,205,9.0,12.0,53,-99.99,,,-99.99,,2013-02-06 23:01:00,
2013-02-06 18:11:00,28.0,14.0,-100.00,SW,215,6.0,11.0,54,-99.99,,,-99.99,,2013-02-06 23:11:00,
2013-02-06 18:21:00,28.0,15.0,-100.00,SW,220,3.0,9.0,56,-99.99,,,-99.99,,2013-02-06 23:21:00,
2013-02-06 18:32:00,28.0,15.0,-100.00,SSW,195,4.0,6.0,56,-99.99,,,-99.99,,2013-02-06 23:32:00,
2013-02-06 18:42:00,28.0,14.0,-100.00,SW,215,3.0,6.0,57,-99.99,,,-99.99,,2013-02-06 23:42:00,
2013-02-06 18:52:00,27.0,15.0,-100.00,SSW,210,3.0,5.0,58,-99.99,,,-99.99,,2013-02-06 23:52:00,
2013-02-06 19:02:00,27.0,15.0,-100.00,South,180,2.0,4.0,59,-99.99,,,-99.99,,2013-02-07 00:02:00,
2013-02-06 19:11:00,27.0,15.0,-100.00,South,180,2.0,4.0,59,-99.99,,,-99.99,,2013-02-07 00:11:00,
2013-02-06 19:21:00,27.0,15.0,-100.00,SSW,205,2.0,4.0,60,-99.99,,,-99.99,,2013-02-07 00:21:00,
2013-02-06 19:32:00,26.0,15.0,-100.00,South,185,3.0,5.0,61,-99.99,,,-99.99,,2013-02-07 00:32:00,
2013-02-06 19:42:00,27.0,16.0,-100.00,SW,225,2.0,6.0,62,-99.99,,,-99.99,,2013-02-07 00:42:00,
2013-02-06 19:52:00,27.0,16.0,-100.00,South,185,4.0,6.0,63,-99.99,,,-99.99,,2013-02-07 00:52:00,
2013-02-06 20:01:00,26.0,16.0,-100.00,SSW,200,2.0,4.0,63,-99.99,,,-99.99,,2013-02-07 01:01:00,
2013-02-06 20:11:00,26.0,15.0,-100.00,SSW,200,4.0,6.0,63,-99.99,,,-99.99,,2013-02-07 01:11:00,
2013-02-06 20:21:00,26.0,16.0,-100.00,South,175,4.0,6.0,64,-99.99,,,-99.99,,2013-02-07 01:21:00,
2013-02-06 20:32:00,26.0,16.0,-100.00,SSE,165,3.0,7.0,65,-99.99,,,-99.99,,2013-02-07 01:32:00,
2013-02-06 20:42:00,25.0,16.0,-100.00,South,170,4.0,5.0,66,-99.99,,,-99.99,,2013-02-07 01:42:00,
2013-02-06 20:52:00,26.0,16.0,-100.00,South,175,4.0,6.0,66,-99.99,,,-99.99,,2013-02-07 01:52:00,
2013-02-06 21:01:00,26.0,17.0,-100.00,SSE,165,1.0,4.0,67,-99.99,,,-99.99,,2013-02-07 02:01:00,
2013-02-06 21:11:00,26.0,17.0,-100.00,SSE,165,2.0,4.0,67,-99.99,,,-99.99,,2013-02-07 02:11:00,
2013-02-06 21:21:00,26.0,17.0,-100.00,South,175,2.0,4.0,68,-99.99,,,-99.99,,2013-02-07 02:21:00,
2013-02-06 21:32:00,26.0,17.0,-100.00,SSE,165,2.0,6.0,67,-99.99,,,-99.99,,2013-02-07 02:32:00,
2013-02-06 21:41:00,26.0,17.0,-100.00,SSE,165,2.0,6.0,67,-99.99,,,-99.99,,2013-02-07 02:41:00,
2013-02-06 21:51:00,26.0,17.0,-100.00,SSE,165,2.0,6.0,67,-99.99,,,-99.99,,2013-02-07 02:51:00,
2013-02-06 22:02:00,26.0,17.0,-100.00,SSE,160,3.0,6.0,68,-99.99,,,-99.99,,2013-02-07 03:02:00,
2013-02-06 22:11:00,27.0,18.0,-100.00,South,185,4.0,6.0,68,-99.99,,,-99.99,,2013-02-07 03:11:00,
2013-02-06 22:21:00,26.0,17.0,-100.00,South,180,4.0,6.0,68,-99.99,,,-99.99,,2013-02-07 03:21:00,
2013-02-06 22:32:00,26.0,17.0,-100.00,SE,140,4.0,6.0,69,-99.99,,,-99.99,,2013-02-07 03:32:00,
2013-02-06 22:42:00,26.0,17.0,-100.00,SE,145,4.0,6.0,70,-99.99,,,-99.99,,2013-02-07 03:42:00,
2013-02-06 22:52:00,25.0,17.0,-100.00,SSE,160,4.0,6.0,71,-99.99,,,-99.99,,2013-02-07 03:52:00,
2013-02-06 23:01:00,25.0,18.0,-100.00,SSE,150,5.0,9.0,72,-99.99,,,-99.99,,2013-02-07 04:01:00,
2013-02-06 23:11:00,26.0,18.0,-100.00,SE,145,5.0,9.0,73,-99.99,,,-99.99,,2013-02-07 04:11:00,
2013-02-06 23:22:00,25.0,18.0,-100.00,SSE,155,5.0,7.0,74,-99.99,,,-99.99,,2013-02-07 04:22:00,
2013-02-06 23:32:00,25.0,18.0,-100.00,SSE,150,5.0,8.0,75,-99.99,,,-99.99,,2013-02-07 04:32:00,
2013-02-06 23:41:00,25.0,19.0,-100.00,South,175,3.0,7.0,75,-99.99,,,-99.99,,2013-02-07 04:41:00,
2013-02-06 23:53:00,25.0,19.0,-100.00,South,175,3.0,6.0,76,-99.99,,,-99.99,,2013-02-07 04:53:00,